Regional Weather Roundup
Issued by NWS

Home | Current Version | Previous Version | Graphics & Text | Print | Product List | Glossary On
Versions: 1 2 3 4 5 6 7 8 9 10 11 12 13 14 15 16 17 18 19 20 21 22 23 24 25 26 27 28 29 30 31 32 33 34 35 36 37 38 39 40 41 42 43 44 45 46 47 48 49 50
000
ASUS43 KFSD 200302
RWRSD

WEATHER ROUNDUP FOR SOUTH DAKOTA
NATIONAL WEATHER SERVICE SIOUX FALLS SD
1000 PM CDT THU OCT 19 2017

NOTE: "FAIR" INDICATES FEW OR NO CLOUDS BELOW 12,000 FEET WITH NO
SIGNIFICANT WEATHER AND/OR OBSTRUCTIONS TO VISIBILITY.


SDZ001>005-009-010-012>017-200400-
NORTHWEST AND NORTH CENTRAL SOUTH DAKOTA

CITY           SKY/WX    TMP DP  RH WIND       PRES   REMARKS
BUFFALO          N/A     58  25  28 SE5       29.61F
FAITH            N/A     59  34  39 SE15      29.68F
MOBRIDGE       CLOUDY    58  42  55 E12       29.67F
$$

SDZ012>016-024>037-041>051-057-063-072>074-200400-
SOUTHWEST AND SOUTH CENTRAL SOUTH DAKOTA

CITY           SKY/WX    TMP DP  RH WIND       PRES   REMARKS
RAPID CTY ARPT CLEAR     56  24  29 SE3       29.71F
PIERRE         CLEAR     63  44  50 SE10      29.70F
CUSTER         CLEAR     57  14  18 S5        29.86F
ELLSWORTH AFB  CLEAR     61  22  22 S3        29.70F
PHILIP         PTCLDY    62  40  44 S12       29.69F
PINE RIDGE     CLOUDY    71  41  33 S16G26    29.78S
SPEARFISH      FAIR      52  28  40 SE7       29.74F
WINNER         FAIR      70  47  43 S17G26    29.78S
$$

SDZ004>011-016>023-039-040-200400-
NORTHEAST SOUTH DAKOTA

CITY           SKY/WX    TMP DP  RH WIND       PRES   REMARKS
ABERDEEN       CLEAR     54  46  74 S9        29.75F
WATERTOWN      CLEAR     56  49  77 SE9       29.82F
BROOKINGS      CLEAR     60  49  66 S14       29.86S
SISSETON         N/A     67  50  54 S16G24    29.77F
$$

SDZ017-020-022-023-036>040-048>070-200400-
SOUTHEAST SOUTH DAKOTA

CITY           SKY/WX    TMP DP  RH WIND       PRES   REMARKS
SIOUX FALLS    CLEAR     65  52  62 S13       29.88S
HURON          CLEAR     62  49  62 S14G22    29.79S
MITCHELL       CLEAR     65  49  56 S15       29.82S
YANKTON        CLEAR     61  50  67 SE7       29.88S
$$

ABBREVIATIONS USED IN REMARKS
   TC - TEMPERATURE IN CELSIUS
  WCI - WIND CHILL INDEX
   HX - HEAT INDEX
  VSB - VISIBILITY





USA.gov is the U.S. government's official web portal to all federal, state and local government web resources and services.